VRD215 KPUB-KABQ

Flight info

Callsign VRD215
Flight time 0h 44m
Altitude 38000
Route FRIHO FRIHO4
Aircraft A20N/M-SDE2E3FGHIRWXY/LB1

Departure

Time 2026-04-26 18:49
Airport Pueblo Memorial Airport (KPUB)

Arrival

Time 2026-04-26 19:33
Airport Albuquerque International Sunport (KABQ)
Time Latitude Longitude Altitude Speed Heading
2026-04-26 18:31 38.28412 -104.49657 4655 ft 0 kts 179°
2026-04-26 18:38 38.28427 -104.49657 4656 ft 3 kts 179°
2026-04-26 18:38 38.28453 -104.49655 4657 ft 3 kts 201°
2026-04-26 18:38 38.28468 -104.49633 4658 ft 3 kts 254°
2026-04-26 18:39 38.28469 -104.49619 4658 ft 0 kts 274°
2026-04-26 18:41 38.28470 -104.49622 4658 ft 0 kts 275°
2026-04-26 18:41 38.28476 -104.49642 4658 ft 4 kts 300°
2026-04-26 18:42 38.28487 -104.49670 4659 ft 3 kts 262°
2026-04-26 18:42 38.28464 -104.49643 4658 ft 9 kts 73°
2026-04-26 18:42 38.28487 -104.49561 4659 ft 10 kts 80°
2026-04-26 18:42 38.28501 -104.49461 4658 ft 13 kts 82°
2026-04-26 18:43 38.28508 -104.49329 4656 ft 16 kts 91°
2026-04-26 18:43 38.28509 -104.49177 4656 ft 17 kts 88°
2026-04-26 18:43 38.28512 -104.49011 4653 ft 19 kts 90°
2026-04-26 18:43 38.28516 -104.48853 4654 ft 17 kts 87°
2026-04-26 18:44 38.28547 -104.48724 4654 ft 12 kts 63°
2026-04-26 18:44 38.28571 -104.48628 4655 ft 12 kts 79°
2026-04-26 18:44 38.28586 -104.48509 4654 ft 15 kts 81°
2026-04-26 18:44 38.28608 -104.48359 4655 ft 18 kts 79°
2026-04-26 18:45 38.28632 -104.48182 4652 ft 22 kts 81°
2026-04-26 18:45 38.28653 -104.47981 4649 ft 23 kts 86°
2026-04-26 18:45 38.28658 -104.47774 4645 ft 24 kts 90°
2026-04-26 18:45 38.28662 -104.47572 4643 ft 18 kts 88°
2026-04-26 18:46 38.28669 -104.47415 4645 ft 16 kts 83°
2026-04-26 18:46 38.28702 -104.47365 4647 ft 0 kts 16°
2026-04-26 18:47 38.28729 -104.47361 4647 ft 12 kts
2026-04-26 18:48 38.28793 -104.47395 4649 ft 16 kts 296°
2026-04-26 18:48 38.28790 -104.47757 4648 ft 76 kts 267°
2026-04-26 18:48 38.28764 -104.48693 4663 ft 129 kts 270°
2026-04-26 18:48 38.28746 -104.50003 4761 ft 165 kts 267°
2026-04-26 18:49 38.28781 -104.51487 5391 ft 170 kts 266°
2026-04-26 18:49 38.28739 -104.53061 5771 ft 194 kts 263°
2026-04-26 18:49 38.28647 -104.54935 6007 ft 229 kts 262°
2026-04-26 18:49 38.28166 -104.57011 6263 ft 255 kts 238°
2026-04-26 18:50 38.27020 -104.58731 6501 ft 261 kts 218°
2026-04-26 18:50 38.25411 -104.59810 6749 ft 264 kts 197°
2026-04-26 18:50 38.23587 -104.60046 6986 ft 266 kts 176°
2026-04-26 18:50 38.21771 -104.59579 7243 ft 269 kts 169°
2026-04-26 18:51 38.19923 -104.59013 7489 ft 270 kts 170°
2026-04-26 18:51 38.18091 -104.58482 7716 ft 268 kts 175°
2026-04-26 18:51 38.16272 -104.58634 7938 ft 263 kts 199°
2026-04-26 18:51 38.14641 -104.59654 8190 ft 261 kts 213°
2026-04-26 18:52 38.13114 -104.60871 8401 ft 260 kts 213°
2026-04-26 18:52 38.11589 -104.62083 8631 ft 259 kts 213°
2026-04-26 18:52 38.10049 -104.63303 8859 ft 258 kts 213°
2026-04-26 18:52 38.08547 -104.64495 9100 ft 258 kts 213°
2026-04-26 18:53 38.07006 -104.65714 9381 ft 262 kts 212°
2026-04-26 18:53 38.05458 -104.66936 10227 ft 265 kts 212°
2026-04-26 18:53 38.03903 -104.68156 11094 ft 268 kts 213°
2026-04-26 18:53 38.02265 -104.69450 11559 ft 286 kts 213°
2026-04-26 18:54 38.00549 -104.70800 12011 ft 303 kts 214°
2026-04-26 18:54 37.98712 -104.72250 12722 ft 311 kts 214°
2026-04-26 18:54 37.96888 -104.73686 13545 ft 314 kts 214°
2026-04-26 18:54 37.95032 -104.75143 14352 ft 317 kts 214°
2026-04-26 18:55 37.93138 -104.76627 15111 ft 321 kts 214°
2026-04-26 18:55 37.91257 -104.78105 15889 ft 324 kts 214°
2026-04-26 18:55 37.89349 -104.79603 16650 ft 328 kts 214°
2026-04-26 18:55 37.87392 -104.81142 17343 ft 333 kts 214°
2026-04-26 18:56 37.85419 -104.82686 18096 ft 336 kts 214°
2026-04-26 18:56 37.83447 -104.84232 18808 ft 339 kts 214°
2026-04-26 18:56 37.81441 -104.85798 19551 ft 341 kts 214°
2026-04-26 18:56 37.79430 -104.87372 20279 ft 343 kts 215°
2026-04-26 18:57 37.77405 -104.88957 20992 ft 345 kts 214°
2026-04-26 18:57 37.76712 -104.89499 21240 ft 345 kts 215°
2026-04-26 18:57 37.73297 -104.92158 22474 ft 347 kts 215°
2026-04-26 18:57 37.71257 -104.93750 23032 ft 352 kts 215°
2026-04-26 18:58 37.69161 -104.95386 23453 ft 359 kts 216°
2026-04-26 18:58 37.67033 -104.97047 24052 ft 362 kts 215°
2026-04-26 18:58 37.64892 -104.98709 24715 ft 362 kts 216°
2026-04-26 18:58 37.62734 -105.00390 25264 ft 364 kts 215°
2026-04-26 18:59 37.60559 -105.02075 25784 ft 367 kts 216°
2026-04-26 18:59 37.58408 -105.03738 26297 ft 368 kts 216°
2026-04-26 18:59 37.56215 -105.05438 26827 ft 369 kts 217°
2026-04-26 18:59 37.54050 -105.07121 27278 ft 370 kts 217°
2026-04-26 19:00 37.51836 -105.08839 27796 ft 371 kts 217°
2026-04-26 19:00 37.49668 -105.10517 28291 ft 371 kts 217°
2026-04-26 19:00 37.47455 -105.12231 28703 ft 373 kts 218°
2026-04-26 19:00 37.45259 -105.13930 29143 ft 373 kts 218°
2026-04-26 19:01 37.43029 -105.15651 29605 ft 373 kts 218°
2026-04-26 19:01 37.40820 -105.17361 30023 ft 373 kts 217°
2026-04-26 19:01 37.38610 -105.19066 30366 ft 375 kts 218°
2026-04-26 19:01 37.36396 -105.20773 30621 ft 378 kts 218°
2026-04-26 19:02 37.34150 -105.22507 31056 ft 376 kts 219°
2026-04-26 19:02 37.31943 -105.24203 31493 ft 373 kts 218°
2026-04-26 19:02 37.29745 -105.25895 31976 ft 369 kts 219°
2026-04-26 19:02 37.28302 -105.27006 32225 ft 368 kts 218°
2026-04-26 19:03 37.25392 -105.29239 32665 ft 367 kts 219°
2026-04-26 19:03 37.23231 -105.30893 33019 ft 365 kts 219°
2026-04-26 19:03 37.21075 -105.32550 33410 ft 362 kts 219°
2026-04-26 19:03 37.18920 -105.34206 33483 ft 362 kts 219°
2026-04-26 19:04 37.16767 -105.35858 33229 ft 360 kts 220°
2026-04-26 19:04 37.14636 -105.37492 32991 ft 361 kts 219°
2026-04-26 19:04 37.12506 -105.39120 32751 ft 363 kts 220°
2026-04-26 19:04 37.10329 -105.40791 32501 ft 364 kts 219°
2026-04-26 19:05 37.06044 -105.44070 32030 ft 364 kts 219°
2026-04-26 19:05 37.03881 -105.45718 31990 ft 364 kts 219°
2026-04-26 19:06 36.99546 -105.49030 31974 ft 362 kts 219°
2026-04-26 19:06 36.95260 -105.52294 31978 ft 361 kts 219°
2026-04-26 19:07 36.90960 -105.55563 31978 ft 362 kts 219°
2026-04-26 19:07 36.86628 -105.58853 31980 ft 361 kts 219°
2026-04-26 19:08 36.82295 -105.62138 31979 ft 361 kts 219°
2026-04-26 19:08 36.77956 -105.65428 31981 ft 361 kts 219°
2026-04-26 19:09 36.73577 -105.68736 31983 ft 364 kts 219°
2026-04-26 19:09 36.69269 -105.71990 31984 ft 364 kts 219°
2026-04-26 19:10 36.64946 -105.75259 31981 ft 361 kts 218°
2026-04-26 19:10 36.60651 -105.78495 31982 ft 362 kts 218°
2026-04-26 19:11 36.56331 -105.81745 31978 ft 364 kts 219°
2026-04-26 19:11 36.51994 -105.85005 31976 ft 363 kts 218°
2026-04-26 19:12 36.47680 -105.88241 31980 ft 363 kts 218°
2026-04-26 19:12 36.43359 -105.91480 31993 ft 362 kts 219°
2026-04-26 19:12 36.41221 -105.93074 31869 ft 353 kts 219°
2026-04-26 19:13 36.39117 -105.94649 31621 ft 350 kts 219°
2026-04-26 19:13 36.37049 -105.96197 31376 ft 352 kts 219°
2026-04-26 19:13 36.34943 -105.97776 31130 ft 354 kts 218°
2026-04-26 19:13 36.32820 -105.99365 30881 ft 353 kts 219°
2026-04-26 19:14 36.30713 -106.00935 30633 ft 355 kts 219°
2026-04-26 19:14 36.28608 -106.02509 30386 ft 356 kts 219°
2026-04-26 19:14 36.26460 -106.04109 30135 ft 358 kts 219°
2026-04-26 19:15 36.22205 -106.07285 29634 ft 359 kts 218°
2026-04-26 19:15 36.20068 -106.08873 29378 ft 360 kts 219°
2026-04-26 19:15 36.17918 -106.10469 29081 ft 361 kts 218°
2026-04-26 19:15 36.15766 -106.12069 28659 ft 359 kts 218°
2026-04-26 19:16 36.13623 -106.13660 28286 ft 357 kts 218°
2026-04-26 19:16 36.11486 -106.15243 27831 ft 355 kts 218°
2026-04-26 19:16 36.09395 -106.16796 27359 ft 352 kts 217°
2026-04-26 19:16 36.07291 -106.18353 26866 ft 349 kts 218°
2026-04-26 19:17 36.05217 -106.19886 26373 ft 346 kts 218°
2026-04-26 19:17 36.03186 -106.21391 25895 ft 343 kts 218°
2026-04-26 19:17 36.01133 -106.22910 25411 ft 340 kts 218°
2026-04-26 19:17 35.99117 -106.24400 24952 ft 336 kts 217°
2026-04-26 19:18 35.97120 -106.25878 24483 ft 334 kts 217°
2026-04-26 19:18 35.95138 -106.27344 24017 ft 330 kts 217°
2026-04-26 19:18 35.93169 -106.28794 23558 ft 328 kts 217°
2026-04-26 19:18 35.91218 -106.30234 23108 ft 325 kts 217°
2026-04-26 19:19 35.89271 -106.31670 22653 ft 323 kts 217°
2026-04-26 19:19 35.87347 -106.33092 22192 ft 320 kts 216°
2026-04-26 19:19 35.85447 -106.34490 21717 ft 319 kts 216°
2026-04-26 19:19 35.83552 -106.35888 21245 ft 318 kts 216°
2026-04-26 19:20 35.81654 -106.37282 20766 ft 317 kts 216°
2026-04-26 19:20 35.81005 -106.37760 20607 ft 317 kts 216°
2026-04-26 19:20 35.77864 -106.40067 19808 ft 316 kts 216°
2026-04-26 19:20 35.75984 -106.41450 19333 ft 315 kts 215°
2026-04-26 19:21 35.74108 -106.42828 18864 ft 315 kts 215°
2026-04-26 19:21 35.72204 -106.44226 18387 ft 314 kts 215°
2026-04-26 19:21 35.70329 -106.45602 17925 ft 314 kts 214°
2026-04-26 19:21 35.68470 -106.46965 17465 ft 313 kts 214°
2026-04-26 19:22 35.66601 -106.48330 16997 ft 313 kts 214°
2026-04-26 19:22 35.64742 -106.49687 16549 ft 311 kts 214°
2026-04-26 19:22 35.62881 -106.51048 16095 ft 310 kts 214°
2026-04-26 19:22 35.61018 -106.52410 15631 ft 309 kts 214°
2026-04-26 19:23 35.59189 -106.53746 15179 ft 307 kts 214°
2026-04-26 19:23 35.57352 -106.55089 14725 ft 306 kts 214°
2026-04-26 19:23 35.55521 -106.56425 14259 ft 305 kts 214°
2026-04-26 19:23 35.53712 -106.57744 13803 ft 305 kts 214°
2026-04-26 19:24 35.51884 -106.59076 13323 ft 305 kts 214°
2026-04-26 19:24 35.50085 -106.60389 12857 ft 304 kts 214°
2026-04-26 19:24 35.46465 -106.63024 11973 ft 302 kts 214°
2026-04-26 19:25 35.44552 -106.64102 11504 ft 306 kts 200°
2026-04-26 19:25 35.43836 -106.64310 11343 ft 308 kts 195°
2026-04-26 19:25 35.40280 -106.64143 10767 ft 302 kts 176°
2026-04-26 19:25 35.38294 -106.63676 10594 ft 280 kts 176°
2026-04-26 19:26 35.36417 -106.63229 10435 ft 269 kts 177°
2026-04-26 19:26 35.34599 -106.62802 10290 ft 263 kts 177°
2026-04-26 19:26 35.32801 -106.62382 10154 ft 258 kts 177°
2026-04-26 19:26 35.31044 -106.61975 9850 ft 260 kts 177°
2026-04-26 19:27 35.29266 -106.61566 9517 ft 259 kts 177°
2026-04-26 19:27 35.27540 -106.61156 9394 ft 241 kts 178°
2026-04-26 19:27 35.25932 -106.60777 9306 ft 236 kts 177°
2026-04-26 19:27 35.24322 -106.60405 9208 ft 231 kts 177°
2026-04-26 19:28 35.22757 -106.59995 9112 ft 230 kts 172°
2026-04-26 19:28 35.21236 -106.59289 9047 ft 233 kts 164°
2026-04-26 19:28 35.19778 -106.58412 8755 ft 235 kts 162°
2026-04-26 19:28 35.18355 -106.57510 8602 ft 228 kts 162°
2026-04-26 19:29 35.16932 -106.56614 8565 ft 230 kts 162°
2026-04-26 19:29 35.15492 -106.55712 8445 ft 231 kts 162°
2026-04-26 19:29 35.14081 -106.54825 8309 ft 229 kts 161°
2026-04-26 19:29 35.12656 -106.53934 8130 ft 228 kts 161°
2026-04-26 19:30 35.11239 -106.53055 7765 ft 231 kts 160°
2026-04-26 19:30 35.09815 -106.52157 7431 ft 224 kts 161°
2026-04-26 19:30 35.08483 -106.51314 7127 ft 212 kts 161°
2026-04-26 19:30 35.07599 -106.50839 6925 ft 202 kts 174°
2026-04-26 19:31 35.05933 -106.50961 6651 ft 167 kts 208°
2026-04-26 19:31 35.05042 -106.51766 6401 ft 155 kts 229°
2026-04-26 19:31 35.04544 -106.52878 6203 ft 143 kts 249°
2026-04-26 19:31 35.04430 -106.54022 6002 ft 131 kts 261°
2026-04-26 19:32 35.04424 -106.55127 5830 ft 128 kts 263°
2026-04-26 19:32 35.04436 -106.56206 5727 ft 125 kts 258°
2026-04-26 19:32 35.04415 -106.57273 5517 ft 124 kts 260°
2026-04-26 19:32 35.04424 -106.58317 5365 ft 113 kts 261°
2026-04-26 19:33 35.04409 -106.59065 5351 ft 63 kts 270°
2026-04-26 19:33 35.04413 -106.59449 5347 ft 33 kts 268°
2026-04-26 19:33 35.04433 -106.59658 5347 ft 22 kts 284°
2026-04-26 19:33 35.04489 -106.59822 5347 ft 19 kts 300°
2026-04-26 19:34 35.04512 -106.59870 5346 ft 0 kts 300°
2026-04-26 19:34 35.04523 -106.59895 5346 ft 10 kts 299°
2026-04-26 19:35 35.04563 -106.59998 5344 ft 14 kts 286°
2026-04-26 19:35 35.04573 -106.60114 5344 ft 13 kts 270°
2026-04-26 19:35 35.04573 -106.60226 5344 ft 13 kts 271°
2026-04-26 19:35 35.04574 -106.60345 5344 ft 14 kts 269°
2026-04-26 19:36 35.04573 -106.60469 5343 ft 15 kts 270°
2026-04-26 19:36 35.04573 -106.60514 5343 ft 15 kts 272°
2026-04-26 19:36 35.04577 -106.60747 5341 ft 16 kts 270°
2026-04-26 19:36 35.04578 -106.60887 5340 ft 16 kts 270°
2026-04-26 19:37 35.04578 -106.61029 5340 ft 16 kts 270°
2026-04-26 19:37 35.04579 -106.61163 5340 ft 15 kts 271°
2026-04-26 19:37 35.04586 -106.61290 5339 ft 14 kts 283°
2026-04-26 19:37 35.04609 -106.61368 5338 ft 5 kts 294°
2026-04-26 19:38 35.04628 -106.61405 5338 ft 4 kts 311°
2026-04-26 19:38 35.04649 -106.61427 5338 ft 3 kts 328°
2026-04-26 19:38 35.04662 -106.61434 5338 ft 0 kts 338°
2026-04-26 19:38 35.04666 -106.61436 5338 ft 2 kts 339°
2026-04-26 19:39 35.04680 -106.61442 5338 ft 0 kts 340°
2026-04-26 19:39 35.04686 -106.61445 5338 ft 1 kts 341°
2026-04-26 19:39 35.04694 -106.61448 5338 ft 0 kts 341°
2026-04-26 19:39 35.04695 -106.61448 5338 ft 0 kts 341°